IBE843 KGTF-KBZN

Flight info

Callsign IBE843
Flight time N/A
Altitude 23000
Route ETIJO HLN SWEDD
Aircraft A346/H-SDE2E3FGHIJ3J4J5M1RWXY/LB1D1

Departure

Time 2026-05-07 08:25
Airport Great Falls International Airport (KGTF)

Arrival

Time N/A
Airport Bozeman Yellowstone International Airport (KBZN)
Time Latitude Longitude Altitude Speed Heading
2026-05-07 08:02 47.48300 -111.35570 3676 ft 0 kts 234°
2026-05-07 08:16 47.48302 -111.35565 3677 ft 3 kts 234°
2026-05-07 08:17 47.48320 -111.35536 3676 ft 4 kts 222°
2026-05-07 08:17 47.48340 -111.35511 3676 ft 4 kts 219°
2026-05-07 08:17 47.48357 -111.35485 3676 ft 2 kts 234°
2026-05-07 08:17 47.48354 -111.35489 3676 ft 4 kts 210°
2026-05-07 08:18 47.48339 -111.35489 3676 ft 4 kts 170°
2026-05-07 08:18 47.48282 -111.35456 3676 ft 0 kts 17°
2026-05-07 08:18 47.48271 -111.35449 3677 ft 0 kts 337°
2026-05-07 08:21 47.48334 -111.35539 3676 ft 12 kts 291°
2026-05-07 08:21 47.48336 -111.35550 3676 ft 2 kts 291°
2026-05-07 08:22 47.48420 -111.35622 3676 ft 19 kts 357°
2026-05-07 08:22 47.48511 -111.35660 3675 ft 10 kts 268°
2026-05-07 08:22 47.48480 -111.35768 3675 ft 13 kts 243°
2026-05-07 08:22 47.48483 -111.35788 3676 ft 8 kts 13°
2026-05-07 08:23 47.48612 -111.35658 3675 ft 29 kts 41°
2026-05-07 08:23 47.48745 -111.35466 3673 ft 25 kts 45°
2026-05-07 08:23 47.48853 -111.35319 3672 ft 17 kts 22°
2026-05-07 08:23 47.48928 -111.35411 3669 ft 16 kts 256°
2026-05-07 08:24 47.48913 -111.35442 3669 ft 0 kts 224°
2026-05-07 08:24 47.48906 -111.35453 3669 ft 2 kts 225°
2026-05-07 08:24 47.48719 -111.35742 3674 ft 90 kts 225°
2026-05-07 08:24 47.48071 -111.36690 3784 ft 163 kts 226°
2026-05-07 08:25 47.47228 -111.37890 4792 ft 173 kts 224°
2026-05-07 08:25 47.46270 -111.39095 5734 ft 189 kts 223°
2026-05-07 08:25 47.45183 -111.40369 6697 ft 208 kts 223°
2026-05-07 08:25 47.43975 -111.41742 7690 ft 231 kts 222°
2026-05-07 08:26 47.41168 -111.44900 9987 ft 274 kts 222°
2026-05-07 08:26 47.39607 -111.46627 11080 ft 294 kts 219°
2026-05-07 08:26 47.37679 -111.48043 12019 ft 326 kts 205°
2026-05-07 08:27 47.35415 -111.49187 12673 ft 360 kts 202°
2026-05-07 08:27 47.32906 -111.50393 12809 ft 391 kts 202°
2026-05-07 08:27 47.30338 -111.51677 12793 ft 390 kts 203°
2026-05-07 08:27 47.27793 -111.53075 12774 ft 387 kts 209°
2026-05-07 08:28 47.25599 -111.55285 12771 ft 377 kts 228°
2026-05-07 08:28 47.24066 -111.58344 12736 ft 368 kts 247°
2026-05-07 08:28 47.23340 -111.61905 12756 ft 361 kts 265°
2026-05-07 08:28 47.23486 -111.65548 12763 ft 356 kts 284°
2026-05-07 08:29 47.24489 -111.68862 12889 ft 356 kts 303°
2026-05-07 08:29 47.26061 -111.71706 12948 ft 358 kts 310°
2026-05-07 08:29 47.27744 -111.74415 12965 ft 359 kts 312°
2026-05-07 08:29 47.29423 -111.77067 12983 ft 359 kts 312°
2026-05-07 08:30 47.31141 -111.79771 12980 ft 359 kts 312°
2026-05-07 08:30 47.32854 -111.82467 12981 ft 359 kts 312°
2026-05-07 08:30 47.34576 -111.85132 12977 ft 359 kts 315°
2026-05-07 08:30 47.36691 -111.87069 12943 ft 359 kts 338°
2026-05-07 08:31 47.39129 -111.87404 12951 ft 350 kts
2026-05-07 08:31 47.41353 -111.86112 12967 ft 343 kts 29°
2026-05-07 08:31 47.43049 -111.83702 12961 ft 335 kts 50°
2026-05-07 08:31 47.44072 -111.80656 12960 ft 331 kts 70°
2026-05-07 08:32 47.44338 -111.77199 12951 ft 341 kts 92°
2026-05-07 08:32 47.43761 -111.73889 12946 ft 327 kts 116°
2026-05-07 08:32 47.42460 -111.71175 12973 ft 323 kts 139°
2026-05-07 08:32 47.40616 -111.69347 12971 ft 317 kts 160°
2026-05-07 08:33 47.38522 -111.68540 12950 ft 306 kts 185°
2026-05-07 08:33 47.36439 -111.68948 12968 ft 300 kts 198°
2026-05-07 08:33 47.34414 -111.69657 12970 ft 299 kts 200°
2026-05-07 08:33 47.32407 -111.70444 12972 ft 298 kts 201°
2026-05-07 08:34 47.30425 -111.71297 12962 ft 294 kts 208°
2026-05-07 08:34 47.28859 -111.73052 12957 ft 278 kts 240°
2026-05-07 08:34 47.28152 -111.75613 12984 ft 267 kts 266°
2026-05-07 08:34 47.28319 -111.78282 12986 ft 262 kts 290°
2026-05-07 08:35 47.29253 -111.80522 12978 ft 262 kts 314°
2026-05-07 08:35 47.30803 -111.81959 12980 ft 269 kts 338°
2026-05-07 08:35 47.32692 -111.82206 12972 ft 281 kts
2026-05-07 08:35 47.34524 -111.81045 12974 ft 297 kts 33°
2026-05-07 08:36 47.35847 -111.78626 12995 ft 309 kts 54°
2026-05-07 08:36 47.36915 -111.75872 12979 ft 309 kts 56°